Lid_Strength_Index
10 13 15 13 12 13 14 15 16 15 13 14 14 13 11 10 11 10 10 11 11 11 10 11 10 10 10 10 10 10 9 8 8 8 8 8 8 7 7 7 7 7 6 6
13 15 12 11 13 13 14 15 15 13 12 13 14 13 11 11 11 11 11 11 11 11 11 11 11 11 10 11 10 10 9 9 9 8 8 8 7 7 6 7 7 7 6 6
14 13 12 12 14 14 15 15 15 15 13 13 15 14 13 12 12 12 12 12 11 11 11 11 12 12 12 11 10 10 9 9 9 9 9 8 7 6 7 7 8 7 7 6
14 12 13 13 14 14 16 13 13 14 14 17 14 18 16 13 13 12 12 12 12 12 11 12 12 12 12 11 10 9 9 9 9 9 9 9 8 8 7 7 8 7 7 6
16 14 14 14 13 12 14 12 13 14 15 16 16 18 15 14 15 13 13 13 12 12 12 12 12 12 12 11 10 10 9 9 9 9 9 8 8 7 7 7 8 8 7 6
15 13 14 14 13 13 13 14 14 15 16 20 18 18 16 16 16 15 14 14 13 12 13 13 13 12 11 11 10 10 10 10 9 9 9 9 9 8 8 8 8 8 7 6
15 14 13 13 15 14 14 15 18 20 21 20 18 19 16 16 16 16 16 15 14 12 13 13 13 13 12 11 11 10 10 10 10 9 9 9 9 8 8 8 8 8 7 6
17 19 13 12 13 14 16 15 19 22 23 21 18 19 16 16 15 15 15 15 15 14 13 13 13 13 12 11 11 10 10 10 10 10 9 9 9 9 8 8 7 7 6 6
18 18 13 12 12 12 14 16 15 20 23 22 19 17 15 16 16 16 16 17 17 16 15 14 13 13 12 11 11 11 10 10 10 10 10 9 9 9 9 8 6 6 5 5
14 18 16 14 12 13 14 13 16 18 24 24 21 19 19 18 18 17 18 18 17 17 16 15 14 14 13 12 12 11 11 10 10 10 10 10 9 9 9 9 7 7 6 5
12 14 17 16 16 16 15 15 15 15 17 21 22 19 17 18 17 18 17 17 17 17 17 16 16 15 15 14 14 13 12 11 11 11 10 10 10 9 10 9 8 7 7 6
12 13 17 17 16 15 16 16 16 18 20 19 18 19 15 16 16 17 17 17 17 17 17 17 17 16 16 16 15 15 15 13 12 11 10 11 10 10 10 9 9 8 7 6
11 15 18 17 15 16 17 16 16 16 17 20 20 20 16 16 17 17 17 17 17 17 17 17 17 17 17 17 17 17 16 15 14 13 11 11 11 11 10 10 9 9 8 7
9 13 16 18 17 16 17 17 16 15 18 19 19 20 19 18 19 19 19 18 18 18 18 18 18 18 18 17 18 18 17 16 15 14 13 11 11 11 11 10 9 9 8 8
11 15 14 14 14 14 15 16 16 16 16 17 18 18 19 18 19 19 18 18 19 19 19 19 19 18 18 18 18 18 17 17 16 16 15 14 12 12 12 11 10 10 9 8
12 15 15 17 14 14 15 13 13 14 15 16 16 19 18 18 17 18 19 19 19 19 19 19 19 19 19 19 19 19 18 18 17 18 17 16 16 16 14 12 12 11 10 9
17 15 18 20 16 16 17 18 17 16 18 17 17 19 17 18 18 18 18 18 19 18 19 19 19 19 19 19 19 19 18 18 18 18 18 18 18 17 17 16 14 12 11 10
18 19 16 22 20 24 18 16 16 18 18 17 18 18 17 17 17 17 17 18 18 18 18 18 18 18 18 18 18 19 18 18 19 19 19 19 18 18 18 17 16 15 13 12
14 17 22 21 25 19 18 18 18 18 19 18 19 18 17 16 16 17 16 17 18 18 18 18 18 19 18 19 19 19 19 19 19 19 19 19 19 19 18 18 18 17 16 14
13 13 19 17 21 25 18 16 15 15 20 17 17 18 18 16 19 18 17 17 18 18 19 19 19 19 19 20 20 20 20 21 21 21 20 19 19 18 18 18 18 17 17 16
19 19 20 20 26 23 17 16 14 20 20 16 16 16 17 18 18 17 17 18 18 18 19 19 19 20 20 20 20 21 21 22 21 21 20 20 19 19 18 18 18 17 17 16
24 25 27 26 26 24 15 15 19 18 15 15 16 16 16 16 16 17 17 17 18 19 19 19 20 20 19 20 21 21 22 21 21 22 21 21 20 19 18 18 18 18 17 17
24 21 23 21 22 19 16 16 16 15 15 14 15 15 16 16 17 17 17 17 18 18 18 18 20 19 19 19 20 21 21 21 22 22 22 22 21 20 20 19 19 19 18 18
22 18 22 21 22 19 19 16 15 14 14 13 14 15 16 17 16 16 16 16 17 17 18 19 19 20 20 20 20 20 20 21 22 23 22 22 21 21 20 20 19 19 19 19
20 18 21 21 18 17 19 16 14 13 13 15 15 16 16 17 16 17 17 18 18 19 19 20 20 20 21 20 21 21 21 22 23 22 21 21 21 21 21 21 20 20 19 18
18 19 21 21 18 17 14 13 12 13 13 14 16 18 17 17 17 18 18 18 19 19 20 20 21 21 21 22 22 22 24 23 24 23 22 21 21 21 21 21 21 19 19 18